Orlando, FL

8:20 AM EST on February 11, 2016 (GMT -0500)
Orlando International

Weather History for KMCO - January, 2014

Change the Weather History Date:

Tuesday, January 14, 2014

  Actual Average Record
Temperature  
Mean Temperature 68 °F 60 °F  
Max Temperature 77 °F 71 °F 86 °F (1972)
Min Temperature 59 °F 49 °F 20 °F (1981)
Degree Days  
Heating Degree Days 0 6  
Month to date heating degree days 64 91  
Since 1 July heating degree days 121 282  
Cooling Degree Days 3 1  
Month to date cooling degree days 40 17  
Year to date cooling degree days 40 17  
Growing Degree Days 19 (Base 50)    
Moisture  
Dew Point 62 °F    
Average Humidity 72    
Maximum Humidity 90    
Minimum Humidity 54    
Precipitation  
Precipitation 0.03 in 0.08 in 2.93 in (2005)
Month to date precipitation 1.17 1.08  
Year to date precipitation 1.17 1.08  
Sea Level Pressure  
Sea Level Pressure 29.98 in    
Wind  
Wind Speed 7 mph (WSW)    
Max Wind Speed 24 mph    
Max Gust Speed 29 mph    
Visibility 9 miles    
Events Rain    
T = Trace of Precipitation, MM = Missing Value Source: NWS Daily Summary

Daily Weather History Graph

Daily Weather History Graph

Search for Another Location

Airport or City:

Trip Planner

Search our weather history database for the weather conditions in past years. The results will help you decide how hot, cold, wet, or windy it might be!

Date:

Astronomy

Jan. 14, 2014 Rise Set
Actual Time 7:18 AM EST 5:50 PM EST
Civil Twilight 6:53 AM EST 6:15 PM EST
Nautical Twilight 6:24 AM EST 6:44 PM EST
Astronomical Twilight 5:56 AM EST 7:12 PM EST
Moon 4:51 PM EST (1/14) 5:54 AM EST (1/14)
Length of Visible Light 11h 22m
Length of Day
10h 31m
Waxing Gibbous, 98% of the Moon is Illuminated
Jan 14
Waxing Gibbous
Jan 15
Full
Jan 24
Last Quarter
Jan 30
New
Feb 6
First Quarter

Hourly Weather History & Observations

Time (EST) Temp. Dew Point Humidity Pressure Visibility Wind Dir Wind Speed Gust Speed Precip Events Conditions
12:53 AM 69.1 °F 64.0 °F 84% 29.97 in 10.0 mi South 6.9 mph - N/A   Mostly Cloudy
1:53 AM 70.0 °F 64.9 °F 84% 29.95 in 10.0 mi South 10.4 mph - N/A   Scattered Clouds
2:53 AM 70.0 °F 64.9 °F 84% 29.94 in 10.0 mi South 9.2 mph - N/A   Mostly Cloudy
3:53 AM 70.0 °F 66.0 °F 87% 29.94 in 10.0 mi South 9.2 mph - N/A   Mostly Cloudy
4:53 AM 68.0 °F 64.9 °F 90% 29.94 in 9.0 mi South 6.9 mph - N/A   Mostly Cloudy
5:45 AM 68.0 °F 64.4 °F 88% 29.95 in 8.0 mi South 6.9 mph - N/A   Overcast
5:53 AM 68.0 °F 64.9 °F 90% 29.95 in 8.0 mi South 5.8 mph - N/A   Overcast
6:07 AM 68.0 °F 64.4 °F 88% 29.96 in 8.0 mi SSW 5.8 mph - N/A   Overcast
6:53 AM 69.1 °F 66.0 °F 90% 29.97 in 9.0 mi SSW 6.9 mph - N/A   Overcast
7:34 AM 69.8 °F 66.2 °F 88% 29.98 in 5.0 mi SSW 6.9 mph - N/A   Overcast
7:53 AM 71.1 °F 66.9 °F 87% 29.99 in 7.0 mi SW 5.8 mph - N/A   Overcast
8:09 AM 69.8 °F 62.6 °F 78% 29.98 in 10.0 mi NNW 20.7 mph 28.8 mph N/A   Overcast
8:43 AM 66.2 °F 60.8 °F 83% 30.02 in 6.0 mi NNW 9.2 mph - 0.02 in Rain Rain
8:53 AM 66.0 °F 61.0 °F 84% 30.02 in 10.0 mi NW 5.8 mph - 0.03 in Rain Light Rain
9:11 AM 66.2 °F 60.8 °F 83% 30.02 in 10.0 mi NNW 5.8 mph - 0.00 in Rain Light Rain
9:53 AM 69.1 °F 62.1 °F 78% 30.04 in 10.0 mi WNW 4.6 mph - 0.00 in   Mostly Cloudy
10:53 AM 69.1 °F 60.1 °F 73% 30.02 in 10.0 mi West 4.6 mph - 0.00 in Rain Light Rain
11:53 AM 73.0 °F 60.1 °F 64% 29.98 in 10.0 mi West 9.2 mph - 0.00 in   Mostly Cloudy
12:53 PM 73.9 °F 60.1 °F 62% 29.92 in 10.0 mi SSW 6.9 mph - N/A   Mostly Cloudy
1:53 PM 77.0 °F 59.0 °F 54% 29.91 in 10.0 mi SW 9.2 mph - N/A   Mostly Cloudy
2:53 PM 71.1 °F 61.0 °F 70% 29.94 in 10.0 mi West 10.4 mph - 0.00 in   Overcast
3:53 PM 70.0 °F 60.1 °F 71% 29.95 in 10.0 mi West 8.1 mph - N/A   Overcast
4:53 PM 69.1 °F 59.0 °F 70% 29.96 in 10.0 mi West 6.9 mph - N/A   Mostly Cloudy
5:53 PM 68.0 °F 60.1 °F 76% 29.97 in 10.0 mi West 6.9 mph - N/A   Mostly Cloudy
6:53 PM 66.9 °F 60.1 °F 79% 29.98 in 10.0 mi WNW 4.6 mph - N/A   Overcast
7:53 PM 66.0 °F 57.0 °F 73% 30.00 in 10.0 mi NW 4.6 mph - N/A   Overcast
8:53 PM 64.0 °F 57.0 °F 78% 30.02 in 10.0 mi Calm Calm - N/A   Mostly Cloudy
9:53 PM 63.0 °F 55.0 °F 75% 30.03 in 10.0 mi WSW 3.5 mph - N/A   Mostly Cloudy
10:53 PM 61.0 °F 54.0 °F 78% 30.01 in 10.0 mi WNW 6.9 mph - N/A   Mostly Cloudy
11:53 PM 59.0 °F 54.0 °F 83% 30.01 in 10.0 mi WNW 4.6 mph - N/A   Mostly Cloudy